Location: B�rgermoos
(47.6500°N, 9.0667°E)
Time: 21:36:04
(UTC+00:00)

Cosmos 990 Rocket - Pass Details

Date: 18 September 2020
Orbit: 746 x 769 km, 74.0° (Epoch: 30 October)

Event Time Altitude Azimuth Distance (km) Brightness Sun altitude
Rises 17:57:07 0° 194° (SSW) 3,178 7.3 -5.5°
Reaches altitude 10° 17:59:28 10° 192° (SSW) 2,257 6.5 -5.9°
Maximum altitude 18:04:33 72° 109° (ESE) 790 3.9 -6.8°
Drops below altitude 10° 18:09:40 10° 26° (NNE) 2,276 6.3 -7.6°
Sets 18:12:03 0° 25° (NNE) 3,206 7.1 -8.0°
